Regional Weather Roundup
Issued by NWS Little Rock, AR

Home | Current Version | Previous Version | Text Only | Print | Product List | Glossary Off
Versions: 1 2 3 4 5 6 7 8 9 10 11 12 13 14 15 16 17 18 19 20 21 22 23 24 25 26 27 28 29 30 31 32

000
ASUS44 KLZK 251105
RWRLZK

WEATHER ROUNDUP FOR ARKANSAS
NATIONAL WEATHER SERVICE LITTLE ROCK AR
600 AM CDT SUN JUN 25 2017

NOTE: "FAIR" INDICATES FEW OR NO CLOUDS BELOW 12,000 FEET WITH NO
SIGNIFICANT WEATHER AND/OR OBSTRUCTIONS TO VISIBILITY.

ARZ001-003-010-029-251200-
NORTHWEST ARKANSAS

CITY           SKY/WX    TMP DP  RH WIND       PRES   REMARKS
FAYETTEVILLE   CLOUDY    60  59  96 CALM      30.28R
FORT SMITH     CLOUDY    68  60  75 CALM      30.24R
HARRISON       CLOUDY    60  55  83 SW3       30.28R
BENTONVILLE    CLOUDY    64  55  72 CALM      30.29R
ROGERS         CLOUDY    64  59  83 CALM      30.29R HAZE
SILOAM SPGS    CLOUDY    63  57  82 CALM      30.28R
HIGHFILL       CLOUDY    64  57  78 CALM      30.28R
SPRINGDALE     PTCLDY    64  59  82 CALM      30.30
$$

ARZ004-005-016-251200-
NORTH CENTRAL ARKANSAS

CITY           SKY/WX    TMP DP  RH WIND       PRES   REMARKS
BATESVILLE     CLOUDY    63  57  82 W3        30.24R
FLIPPIN        CLOUDY    61  54  77 CALM      30.24R
MTN HOME       CLOUDY    61  58  90 CALM      30.25
$$

ARZ040-041-251200-
WEST CENTRAL ARKANSAS

CITY           SKY/WX    TMP DP  RH WIND       PRES   REMARKS
MENA           CLOUDY    64  63  94 CALM      30.25R
MOUNT IDA      PTCLDY    62  60  93 CALM      30.21S
$$

ARZ009-017-025-026-028-251200-
NORTHEAST ARKANSAS

CITY           SKY/WX    TMP DP  RH WIND       PRES   REMARKS
CORNING        FAIR      59  59 100 NW3       30.23R
JONESBORO      CLOUDY    67  54  63 CALM      30.21R
WALNUT RIDGE   PTCLDY    63  54  72 N7        30.22R
BLYTHEVILLE      N/A     65  62  90 CALM      30.21R
$$

ARZ022-023-033-042-044-251200-
CENTRAL ARKANSAS

CITY           SKY/WX    TMP DP  RH WIND       PRES   REMARKS
LITTLE ROCK    CLOUDY    67  61  81 CALM      30.22R
N LITTLE ROCK    N/A     66  60  82 NW3       30.22R
JACKSONVILLE   CLOUDY    65  63  93 CALM      30.22R
CONWAY           N/A     66  63  88 CALM      30.22R
SEARCY         CLOUDY    65  60  84 NW3       30.24R
HOT SPRINGS    CLOUDY    65  60  84 SW5       30.22R
RUSSELLVILLE   MOCLDY    63  62  97 CALM      30.23R
CLINTON        CLOUDY    61  61 100 CALM      30.25R
$$

ARZ036-251200-
EAST ARKANSAS

CITY           SKY/WX    TMP DP  RH WIND       PRES   REMARKS
WEST MEMPHIS   CLOUDY    67  66  97 NE3       30.19R
$$

ARZ050-053-066-070-073-251200-
SOUTHWEST ARKANSAS

CITY           SKY/WX    TMP DP  RH WIND       PRES   REMARKS
CAMDEN         CLOUDY    68  64  88 CALM      30.20R
TEXARKANA      CLOUDY    67  65  93 NE3       30.20R
EL DORADO      CLOUDY    69  65  86 NE6       30.19S
DE QUEEN       PTCLDY    65  64  97 CALM      30.19R
$$

ARZ056-057-069-251200-
SOUTHEAST ARKANSAS

CITY           SKY/WX    TMP DP  RH WIND       PRES   REMARKS
PINE BLUFF     CLOUDY    69  64  84 N3        30.20S
STUTTGART      CLOUDY    68  55  64 N5        30.21R
MONTICELLO     CLOUDY    67  65  93 CALM      30.20R

$$






USA.gov is the U.S. government's official web portal to all federal, state and local government web resources and services.